Regional Weather Roundup
Issued by NWS Green Bay, WI

Home | Current Version | Previous Version | Graphics & Text | Print | Product List | Glossary Off
Versions: 1 2 3 4 5 6 7 8 9 10 11 12 13 14 15 16 17 18 19 20 21 22 23 24 25 26 27 28 29 30 31 32 33 34 35 36 37 38 39 40 41 42 43 44 45 46 47 48 49 50

515
ASUS43 KGRB 201511
RWRGRB

NORTH-CENTRAL AND NORTHEAST WISCONSIN REGIONAL WEATHER ROUNDUP
NATIONAL WEATHER SERVICE GREEN BAY WI
900 AM CST FRI JAN 20 2017

WIZ005-009-010>012-018-019-201600-
NORTH CENTRAL WISCONSIN

CITY           SKY/WX    TMP DP  RH WIND       PRES   REMARKS
IRONWOOD       LGT RAIN  35  30  82 SE6       29.70S
MANITOWISH WTR RAIN      32  32 100 CALM      29.68S
ARBOR VITAE    MIX PCPN  34  33  96 CALM      29.67F
EAGLE RIVER    MIX PCPN  32  32 100 CALM      29.67F
LAND O LAKES   CLOUDY    30  30 100 CALM      29.69F
RHINELANDER    FRZ RAIN  33  33 100 CALM      29.67F FOG
PHILLIPS       LGT RAIN  33  33 100 CALM      29.66F
ANTIGO         CLOUDY    32  32 100 CALM      29.68S FOG
TOMAHAWK       DRIZZLE   32  32  99 CALM      29.68F
MERRILL        DRZL/FOG  33  33 100 CALM        N/A  VSB 1
$$

WIZ013-073-201600-
NORTHEAST WISCONSIN

CITY           SKY/WX    TMP DP  RH WIND       PRES   REMARKS
IRON MOUNTAIN  CLOUDY    31  28  89 N3        29.68F FOG
MARINETTE      NOT AVBL
OCONTO         CLOUDY    32  32 100 NE3       29.73S
$$

WIZ017-030-035>037-045-201600-
CENTRAL WISCONSIN

CITY           SKY/WX    TMP DP  RH WIND       PRES   REMARKS
MEDFORD        DRIZZLE   33  32  97 E8        29.65F
WAUSAU         CLOUDY    33  32  96 E3        29.67S FOG
MOSINEE        CLOUDY    32  32 100 NE9       29.68F FOG
MARSHFIELD     LGT RAIN  33  31  92 E7        29.65S FOG
WISC RAPIDS    CLOUDY    34  34 100 E8        29.68S FOG
STEVENS POINT  CLOUDY    32  32 100 E6        29.68S FOG
WAUPACA        CLOUDY    35  34  96 CALM      29.69S FOG
SHAWANO        DRIZZLE   34  33  95 CALM      29.71S
CLINTONVILLE   DRIZZLE   32  32 100 NE3       29.70S
WAUTOMA        LGT RAIN  34  33  96 NE6       29.69R FOG
$$

WIZ038-039-048-051-201600-
FOX VALLEY

CITY           SKY/WX    TMP DP  RH WIND       PRES   REMARKS
NWS GREEN BAY  LGT RAIN  34  34 100 NE13      29.70F FOG
APPLETON       DRZL/FOG  34  34 100 NE8       29.67F VSB 1
OSHKOSH        CLOUDY    34  32  92 NE9       29.67F FOG
FOND DU LAC    LGT RAIN  35  32  88 NE6       29.67S FOG
$$

WIZ022-050-052-201600-
EAST CENTRAL WISCONSIN

CITY           SKY/WX    TMP DP  RH WIND       PRES   REMARKS
EPHRAIM        FOG       32  32 100 N3        29.72R VSB<1/4
WASHINGTON ISL FOG       33  33 100 NE3       29.74R VSB<1/4
STURGEON BAY   FOG       33  33 100 N5        29.73S VSB 1/4
MANITOWOC      LGT RAIN  36  34  92 N5        29.70S VSB 3/4
SHEBOYGAN      LGT RAIN  35  34  96 NE9       29.68R VSB 1/4
$$

LMZ563-521-522-541>543-201600-
LAKESHORE

STATION/POSITION TIME  TEMP    WIND        PRES    VSBY  WAVE
                       AIR SEA DIR/SP/G                  HT/PER
                 (UTC) (F)     (DEG/KT/KT) (MB)    (MI)  (FT/S)
SHEBOYGAN LKSHOR 1500   35      10/  7/  7 1005.4F
KEWAUNEE LKSHORE 1448   35      20/  6/ 10 1005.9S
NORTHPORT PIER   1440   34      CALM  /  2 1007.1R
SISTER BAY LKSHO 1420   34        CALM       N/A
$$




USA.gov is the U.S. government's official web portal to all federal, state and local government web resources and services.